Laramie, WY

8:46 AM MDT on May 26, 2017 (GMT -0600)
Laramie Regional

Weather History for KLAR - June, 2012

Change the Weather History Date:

Tuesday, June 5, 2012

  Actual Average Record
Temperature  
Mean Temperature 67 °F 54 °F  
Max Temperature 81 °F 68 °F 84 °F (1969)
Min Temperature 52 °F 39 °F 26 °F (2001)
Degree Days  
Heating Degree Days 0 11  
Month to date heating degree days 12 59  
Since 1 June heating degree days 12 59  
Since 1 July heating degree days 8082 8648  
Cooling Degree Days 2 0  
Month to date cooling degree days 2 0  
Year to date cooling degree days 2 0  
Since 1 June cooling degree days 2 0  
Growing Degree Days 16 (Base 50)    
Moisture  
Dew Point 41 °F    
Average Humidity 47    
Maximum Humidity 71    
Minimum Humidity 23    
Precipitation  
Precipitation 0.00 in 0.07 in 0.70 in (1953)
Month to date precipitation 0.01 0.33  
Year to date precipitation 2.37 4.28  
Sea Level Pressure  
Sea Level Pressure 29.64 in    
Wind  
Wind Speed 24 mph (SSE)    
Max Wind Speed 44 mph    
Max Gust Speed 52 mph    
Visibility 10 miles    
Events Thunderstorm    
T = Trace of Precipitation, MM = Missing Value Source: NWS Daily Summary

Daily Weather History Graph

Daily Weather History Graph

Search for Another Location

Airport or City:

Trip Planner

Search our weather history database for the weather conditions in past years. The results will help you decide how hot, cold, wet, or windy it might be!

Date:

Astronomy

Jun. 05, 2012 Rise Set
Actual Time 5:30 AM MDT 8:32 PM MDT
Civil Twilight 4:56 AM MDT 9:06 PM MDT
Nautical Twilight 4:14 AM MDT 9:48 PM MDT
Astronomical Twilight 3:24 AM MDT 10:39 PM MDT
Moon 9:59 PM MDT (6/5) 6:45 AM MDT (6/5)
Length of Visible Light 16h 09m
Length of Day
15h 02m
Full, 98% of the Moon is Illuminated
Jun 5
Full
Jun 11
Last Quarter
Jun 19
New
Jun 26
First Quarter
Jul 3
Full

Hourly Weather History & Observations

Time (MDT) Temp. Dew Point Humidity Pressure Visibility Wind Dir Wind Speed Gust Speed Precip Events Conditions
12:53 AM 57.0 °F 43.0 °F 59% 29.74 in 10.0 mi SSE 16.1 mph - N/A   Clear
1:53 AM 55.9 °F 42.1 °F 60% 29.73 in 10.0 mi SSE 16.1 mph 20.7 mph N/A   Clear
2:53 AM 55.0 °F 42.1 °F 62% 29.72 in 10.0 mi SSE 12.7 mph - N/A   Clear
3:53 AM 55.0 °F 43.0 °F 64% 29.70 in 10.0 mi SSE 12.7 mph - N/A   Clear
4:53 AM 54.0 °F 44.1 °F 69% 29.70 in 10.0 mi SSE 16.1 mph - N/A   Clear
5:53 AM 54.0 °F 43.0 °F 66% 29.66 in 10.0 mi SE 15.0 mph - N/A   Clear
6:53 AM 55.9 °F 44.1 °F 64% 29.68 in 10.0 mi SSW 15.0 mph - N/A   Clear
7:53 AM 62.1 °F 43.0 °F 50% 29.67 in 10.0 mi South 18.4 mph - N/A   Clear
8:53 AM 62.1 °F 44.1 °F 52% 29.66 in 10.0 mi SSE 24.2 mph 29.9 mph N/A   Clear
9:53 AM 69.1 °F 42.1 °F 38% 29.64 in 10.0 mi SSE 24.2 mph 31.1 mph N/A   Clear
10:53 AM 72.0 °F 39.9 °F 31% 29.63 in 10.0 mi SSE 27.6 mph 33.4 mph N/A   Clear
11:53 AM 75.9 °F 39.9 °F 27% 29.60 in 10.0 mi SSE 27.6 mph 34.5 mph N/A   Clear
12:53 PM 77.0 °F 39.9 °F 26% 29.60 in 10.0 mi SSE 29.9 mph 36.8 mph N/A   Clear
1:53 PM 78.1 °F 39.0 °F 25% 29.57 in 10.0 mi SE 29.9 mph 38.0 mph N/A   Clear
2:53 PM 79.0 °F 37.0 °F 22% 29.56 in 10.0 mi SE 26.5 mph 35.7 mph N/A   Partly Cloudy
3:26 PM 75.2 °F 39.2 °F 27% 29.91 in 10.0 mi SSE 25.3 mph 34.5 mph N/A Thunderstorm Partly Cloudy
3:41 PM 75.2 °F 39.2 °F 27% 29.91 in 10.0 mi SSE 25.3 mph 31.1 mph N/A   Scattered Clouds
3:53 PM 75.9 °F 39.0 °F 26% 29.56 in 10.0 mi SE 24.2 mph 36.8 mph N/A   Mostly Cloudy
4:53 PM 79.0 °F 37.9 °F 23% 29.52 in 10.0 mi SSE 29.9 mph 38.0 mph N/A   Clear
5:53 PM 73.0 °F 37.0 °F 27% 29.53 in 10.0 mi SSE 34.5 mph 47.2 mph N/A   Clear
6:53 PM 72.0 °F 39.9 °F 31% 29.53 in 10.0 mi SE 28.8 mph 41.4 mph N/A   Mostly Cloudy
7:53 PM 70.0 °F 41.0 °F 35% 29.52 in 10.0 mi SE 31.1 mph 44.9 mph N/A   Clear
8:53 PM 66.9 °F 39.9 °F 37% 29.55 in 10.0 mi SSE 24.2 mph 34.5 mph N/A   Clear
9:53 PM 64.9 °F 41.0 °F 42% 29.55 in 10.0 mi SE 32.2 mph 41.4 mph N/A   Clear
10:53 PM 63.0 °F 43.0 °F 48% 29.56 in 10.0 mi SE 27.6 mph 36.8 mph N/A   Clear
11:53 PM 62.1 °F 44.1 °F 52% 29.55 in 10.0 mi SE 25.3 mph 38.0 mph N/A   Clear